Regional Weather Roundup
Issued by NWS

Home | Current Version | Previous Version | Text Only | Print | Product List | Glossary Off
Versions: 1 2 3 4 5 6 7 8 9 10 11 12 13 14 15 16 17 18 19 20 21 22 23 24 25 26 27 28 29 30 31 32 33 34 35 36 37 38 39 40 41 42 43 44 45 46 47 48 49 50

646
ASUS43 KMPX 291601
RWRMN
WEATHER ROUNDUP FOR MINNESOTA
NATIONAL WEATHER SERVICE TWIN CITIES/CHANHASSEN MN
1100 AM CDT SUN MAY 29 2016


NOTE: "FAIR" INDICATES FEW OR NO CLOUDS BELOW 12,000 FEET WITH NO
SIGNIFICANT WEATHER AND/OR OBSTRUCTIONS TO VISIBILITY. N/A MEANS
CURRENT SKY AND/OR WEATHER CONDITIONS ARE NOT AVAILABLE.

MNZ060>063-068>070-291700-
   Twin Cities Metro

CITY           SKY/WX    TMP DP  RH WIND       PRES   REMARKS
TWIN CITIES    PTSUNNY   71  59  65 NW13      29.94R
ST PAUL        CLOUDY    69  59  70 W15       29.94R
CRYSTAL        PTSUNNY   69  56  62 W15G26    29.93R
BLAINE         PTSUNNY   70  63  78 W12G20    29.94R
EDEN PRAIRIE   MOSUNNY   71  56  58 W15G22    29.94R
SOUTH ST PAUL  CLOUDY    69  57  65 W13G20    29.94R
LAKE ELMO      CLOUDY    68  61  77 W10       29.95R
$$
MNZ001>005-007-008-013>017-022>024-027-028-291700-
   Northwest Minnesota

CITY           SKY/WX    TMP DP  RH WIND       PRES   REMARKS
BEMIDJI        CLOUDY    60  55  84 W13       29.91R
HALLOCK        CLOUDY    61  57  88 NW12      29.92S
ROSEAU         CLOUDY    57  54  88 NW9       29.90R
WARROAD        CLOUDY    57  54  88 NW10      29.89S
THIEF RVR FALL PTSUNNY   61  54  77 NW12      29.94S
CROOKSTON      PTSUNNY   63  57  82 NW9       29.94S
FOSSTON        CLOUDY    57  54  88 NW13G21   29.95R
DETROIT LAKES  CLOUDY    63  57  82 NW10      29.96R
MOORHEAD       PTSUNNY   64  57  77 NW9       29.97R
PARK RAPIDS    CLOUDY    64  58  80 NW15      29.93R
MAHNOMEN       CLOUDY    59  56  89 NW9       29.94R
$$
MNZ006-009>011-018-025>026-291700-
   North Central Minnesota

CITY           SKY/WX    TMP DP  RH WIND       PRES   REMARKS
BAUDETTE       CLOUDY    59  54  83 NW12      29.87R
FLAG ISLAND    CLOUDY    55  54  94 NW13      29.86S
INTL FALLS     CLOUDY    57  55  93 NW8       29.83S
WASKISH        CLOUDY    57  55  94 W12       29.89R
BIG FORK       LGT RAIN  57  55  94 NW7       29.87R
LONGVILLE      CLOUDY    61  55  82 W7        29.91R
GRAND RAPIDS   CLOUDY    60  56  86 SW8       29.89R
CRANE LAKE     CLOUDY    57  55  94 W5        29.83R
ORR            CLOUDY    57  54  88 NW10G16   29.81R FOG
COOK           CLOUDY    61  55  82 W12G17    29.84R
WALKER         CLOUDY    60  54  82 W9G17     29.91R
$$
MNZ012-019>021-037-291700-
   Northeast Minnesota

CITY           SKY/WX    TMP DP  RH WIND       PRES   REMARKS
DULUTH         CLOUDY    61  56  83 W14       29.84R
ELY            RAIN      57  55  94 W9G16     29.80S
HIBBING        CLOUDY    60  53  77 NW16G22   29.85R
EVELETH        CLOUDY    61  54  77 W14G20    29.85R
DULUTH HARBOR  CLOUDY    64  59  82 W15       29.84R
TWO HARBORS    CLOUDY    64  61  88 W8        29.79S
SILVER BAY     CLOUDY    64  59  82 W5        29.77S
GRAND MARAIS     N/A     43  42  97 SW9       29.77S
G MARAIS ARPRT LGT RAIN  57  54  88 S5        29.78S
$$
MNZ029>031-032-039>041-046>048-054>057-064-291700-
   West Central Minnesota

CITY           SKY/WX    TMP DP  RH WIND       PRES   REMARKS
FERGUS FALLS   MOSUNNY   66  59  77 NW14      29.93S
WHEATON        SUNNY     73  61  64 W9G16     29.99R
MORRIS         MOSUNNY   68  61  77 NW8       29.97R
ALEXANDRIA     PTSUNNY   65  57  75 NW12      29.98R
ELBOW LAKE     CLOUDY    66  59  78 NW13      29.98R
WADENA         CLOUDY    63  57  82 W7        29.94S
GLENWOOD       MOSUNNY   66  59  77 W10       29.98R
APPLETON       MOSUNNY   72  57  60 NW8       29.97S
ORTONVILLE     SUNNY     72  57  60 NW7       29.98R
MADISON        SUNNY     72  55  56 NW13      29.98S
WILLMAR        FAIR      68  63  83 NW8       29.99R
$$
MNZ033>034-036-042>043-049>051-058-059-291700-
   Central Minnesota

CITY           SKY/WX    TMP DP  RH WIND       PRES   REMARKS
ST CLOUD       CLOUDY    67  57  70 NW14      29.95R
SAUK CENTRE    CLOUDY    66  57  73 NW12      29.97R
PAYNESVILLE    MOSUNNY   68  58  71 NW12      29.97R
AITKIN         CLOUDY    66  54  63 W8        29.89S
PINE RIVER     CLOUDY    61  55  82 NW6       29.95S
BRAINERD       CLOUDY    62  56  80 W10       29.93R
STAPLES        CLOUDY    63  55  77 W10       29.94R
LONG PRAIRIE   CLOUDY    64  55  72 W12G17    29.96R
LITTLE FALLS   CLOUDY    64  54  68 W9        29.94S
LITCHFIELD     MOSUNNY   72  63  73 W9        29.97R
BUFFALO        PTSUNNY   68  56  66 NW13G18   29.97R
MAPLE LAKE     MOSUNNY   68  60  75 W13G20    29.97R
HUTCHINSON     MOSUNNY   70  62  76 W9        29.99R
$$
MNZ037-044-045-052-053-291700-
   East Central Minnesota

CITY           SKY/WX    TMP DP  RH WIND       PRES   REMARKS
PRINCETON      PTSUNNY   68  57  68 NW14G22   29.94R
MORA           PTSUNNY   64  55  72 NW12      29.92R
CAMBRIDGE      CLOUDY    70  55  60 W14G23    29.91R
RUSH CITY      PTSUNNY   67  58  73 NW8       29.91S
MOOSE LAKE     CLOUDY    63  55  77 W9G22     29.87R
HINCKLEY       CLOUDY    64  59  82 W13G21    29.90R
CLOQUET        CLOUDY    63  54  72 W16G23    29.86R
MCGREGOR       CLOUDY    61  55  82 W6        29.90R
$$
MNZ071>073-080-081-089-090-097-098-291700-
   Southwest Minnesota

CITY           SKY/WX    TMP DP  RH WIND       PRES   REMARKS
MONTEVIDEO     SUNNY     72  61  68 NW12      30.00R
GRANITE FALLS  SUNNY     73  61  66 W12       30.00S
CANBY          SUNNY     73  58  59 NW14      30.01R
MARSHALL       SUNNY     72  57  59 NW15G22   30.00
REDWOOD FALLS  SUNNY     71  59  65 W14       29.99R
OLIVIA         MOSUNNY   70  61  73 NW10      29.98R
PIPESTONE      SUNNY     70  55  60 NW10G17   30.04S
WINDOM         SUNNY     73  57  56 CALM      30.02R
WORTHINGTON    MOSUNNY   70  59  68 W15       30.05R
JACKSON        SUNNY     72  55  56 W18       30.04R
TRACY          SUNNY     72  60  65 W9        30.01S
SLAYTON        MOSUNNY   69  57  65 W15       30.04S
$$
MNZ065>067-074>077-082>085-091>093-291700-
   South Central Minnesota

CITY           SKY/WX    TMP DP  RH WIND       PRES   REMARKS
MANKATO        MOSUNNY   70  57  64 W12       29.99R
NEW ULM        MOSUNNY   70  61  73 W14       29.99R
ST JAMES       SUNNY     66  57  72 W12G17    30.01R
FAIRMONT       SUNNY     72  59  64 W16G22    30.02R
GLENCOE        MOSUNNY   70  64  80 W9        29.97R
FARIBAULT      MOSUNNY   70  61  73 W14       29.98R
OWATONNA       SUNNY     70  61  73 W15       29.99R
WASECA         MOSUNNY   72  63  73 W14       30.01R
ALBERT LEA     MOSUNNY   72  61  68 W7G20       N/A
$$
MNZ078>079-086>088-094>096-291700-
   Southeast Minnesota

CITY           SKY/WX    TMP DP  RH WIND       PRES   REMARKS
ROCHESTER      MOSUNNY   70  62  76 W22G28    29.99R
RED WING       CLOUDY    70  59  68 NW16      29.93R
STANTON        MOSUNNY   71  59  66 W18G28    29.95R
DODGE CENTER   MOSUNNY   70  59  68 W14       29.99R
WINONA         MOSUNNY   70  59  68 W7G16     29.95R
AUSTIN         MOSUNNY   70  59  68 W8G20     30.01R
PRESTON        MOSUNNY   69  58  68 W14G24    30.00R
$$
ABBREVIATIONS USED IN REMARKS
   TC - TEMPERATURES IN CELSIUS
  WCI - WIND CHILL INDEX
   HX - HEAT INDEX
  VSB - VISIBILITY
$$




USA.gov is the U.S. government's official web portal to all federal, state and local government web resources and services.